| time (UTC) | temp F | wind direction | speed knots | gust knots | rain 1hr in | rain 24hr in | rain mn in | humidity % | barometer mb |
| 20260505093341 | 53 | 293 | 0.0 | 0.0 | 0.00 | 0.00 | 0.00 | 88 | 1012.6 |
| 20260505092829 | 53 | 293 | 0.0 | 0.9 | 0.00 | 0.00 | 0.00 | 88 | 1012.5 |
| 20260505092316 | 54 | 293 | 0.0 | 0.9 | 0.00 | 0.00 | 0.00 | 88 | 1012.5 |
| 20260505091825 | 54 | 297 | 0.0 | 0.9 | 0.00 | 0.00 | 0.00 | 88 | 1012.5 |
| 20260505091313 | 54 | 265 | 0.0 | 0.0 | 0.00 | 0.00 | 0.00 | 87 | 1012.5 |
| 20260505090823 | 54 | 265 | 0.0 | 0.0 | 0.00 | 0.00 | 0.00 | 87 | 1012.4 |
| 20260505090331 | 54 | 265 | 0.0 | 0.0 | 0.00 | 0.00 | 0.00 | 87 | 1012.4 |
| 20260505085842 | 54 | 265 | 0.0 | 0.0 | 0.00 | 0.00 | 0.00 | 87 | 1012.5 |
| 20260505085313 | 54 | 265 | 0.0 | 0.0 | 0.00 | 0.00 | 0.00 | 86 | 1012.4 |
| 20260505084824 | 54 | 265 | 0.0 | 0.9 | 0.00 | 0.00 | 0.00 | 86 | 1012.4 |
| 20260505084353 | 55 | 269 | 0.0 | 0.9 | 0.00 | 0.00 | 0.00 | 86 | 1012.3 |
| 20260505083820 | 55 | 236 | 0.0 | 1.7 | 0.00 | 0.00 | 0.00 | 86 | 1012.3 |
| 20260505083328 | 55 | 236 | 0.0 | 1.7 | 0.00 | 0.00 | 0.00 | 85 | 1012.3 |
| 20260505082817 | 55 | 274 | 0.0 | 0.9 | 0.00 | 0.00 | 0.00 | 85 | 1012.2 |
| 20260505082327 | 55 | 238 | 0.0 | 3.5 | 0.00 | 0.00 | 0.00 | 85 | 1012.2 |
| 20260505081815 | 55 | 281 | 0.0 | 3.5 | 0.00 | 0.00 | 0.00 | 85 | 1012.1 |
| 20260505081343 | 55 | 311 | 0.9 | 4.3 | 0.00 | 0.00 | 0.00 | 85 | 1012.1 |
| 20260505080829 | 55 | 273 | 0.0 | 4.3 | 0.00 | 0.00 | 0.00 | 85 | 1012.0 |
| 20260505080317 | 56 | 220 | 0.9 | 1.7 | 0.00 | 0.00 | 0.00 | 85 | 1012.0 |
| 20260505075845 | 56 | 355 | 0.0 | 0.9 | 0.00 | 0.00 | 0.00 | 84 | 1012.0 |
| 20260505075316 | 56 | 355 | 0.0 | 0.9 | 0.00 | 0.00 | 0.00 | 84 | 1012.0 |
| 20260505074847 | 56 | 288 | 0.0 | 0.0 | 0.00 | 0.00 | 0.00 | 84 | 1011.9 |
| 20260505074313 | 56 | 288 | 0.0 | 0.9 | 0.00 | 0.00 | 0.00 | 84 | 1011.9 |
| 20260505063826 | 56 | 105 | 0.0 | 0.0 | 0.00 | 0.00 | 0.00 | 80 | 1011.3 |
| 20260505063315 | 57 | 105 | 0.0 | 0.0 | 0.00 | 0.00 | 0.00 | 80 | 1011.3 |
| 20260505062824 | 57 | 105 | 0.0 | 0.0 | 0.00 | 0.00 | 0.00 | 80 | 1011.2 |
| 20260505062332 | 57 | 105 | 0.0 | 0.0 | 0.00 | 0.00 | 0.00 | 79 | 1011.1 |
| 20260505061822 | 57 | 105 | 0.0 | 0.0 | 0.00 | 0.00 | 0.00 | 79 | 1011.1 |
| 20260505061315 | 57 | 105 | 0.0 | 0.0 | 0.00 | 0.00 | 0.00 | 78 | 1011.0 |
| 20260505060823 | 58 | 105 | 0.0 | 0.0 | 0.00 | 0.00 | 0.00 | 79 | 1011.1 |
| 20260505060352 | 58 | 105 | 0.0 | 0.0 | 0.00 | 0.00 | 0.00 | 77 | 1011.0 |
| 20260505055821 | 58 | 105 | 0.0 | 0.0 | 0.00 | 0.00 | 0.00 | 77 | 1011.0 |
| 20260505055329 | 58 | 105 | 0.0 | 0.0 | 0.00 | 0.00 | 0.00 | 77 | 1010.9 |
| 20260505054837 | 58 | 105 | 0.0 | 0.0 | 0.00 | 0.00 | 0.00 | 77 | 1010.9 |
| 20260505054326 | 58 | 105 | 0.0 | 0.0 | 0.00 | 0.00 | 0.00 | 77 | 1010.8 |
| 20260505053833 | 59 | 105 | 0.0 | 0.0 | 0.00 | 0.00 | 0.00 | 76 | 1010.8 |
| 20260505053341 | 59 | 105 | 0.0 | 0.0 | 0.00 | 0.00 | 0.00 | 75 | 1010.8 |
| 20260505052830 | 59 | 105 | 0.0 | 0.0 | 0.00 | 0.00 | 0.00 | 75 | 1010.8 |
| 20260505052316 | 59 | 105 | 0.0 | 0.0 | 0.00 | 0.00 | 0.00 | 75 | 1010.6 |
| 20260505051825 | 59 | 105 | 0.0 | 0.0 | 0.00 | 0.00 | 0.00 | 73 | 1010.5 |
| 20260505051317 | 60 | 105 | 0.0 | 0.0 | 0.00 | 0.00 | 0.00 | 73 | 1010.5 |
| 20260505050826 | 60 | 105 | 0.0 | 0.0 | 0.00 | 0.00 | 0.00 | 73 | 1010.5 |
| 20260505050315 | 60 | 105 | 0.0 | 0.0 | 0.00 | 0.00 | 0.00 | 72 | 1010.4 |
| 20260505041320 | 63 | 105 | 0.0 | 0.0 | 0.00 | 0.00 | 0.00 | 64 | 1010.0 |
| 20260505040827 | 64 | 105 | 0.0 | 0.0 | 0.00 | 0.00 | 0.00 | 64 | 1010.0 |
| 20260505040316 | 64 | 105 | 0.0 | 0.0 | 0.00 | 0.00 | 0.00 | 64 | 1009.8 |
| 20260505035827 | 65 | 105 | 0.0 | 0.0 | 0.00 | 0.00 | 0.00 | 62 | 1009.8 |
| 20260505035335 | 65 | 105 | 0.0 | 0.0 | 0.00 | 0.00 | 0.00 | 61 | 1009.7 |
| 20260505034841 | 65 | 105 | 0.0 | 0.0 | 0.00 | 0.00 | 0.00 | 61 | 1009.6 |
| 20260505034325 | 66 | 105 | 0.0 | 0.0 | 0.00 | 0.00 | 0.00 | 62 | 1009.6 |
| 20260505033832 | 66 | 105 | 0.0 | 0.0 | 0.00 | 0.00 | 0.00 | 61 | 1009.5 |
| 20260505033321 | 67 | 105 | 0.0 | 0.0 | 0.00 | 0.00 | 0.00 | 59 | 1009.5 |
| 20260505032815 | 67 | 105 | 0.0 | 0.0 | 0.00 | 0.00 | 0.00 | 63 | 1009.4 |
| 20260505032322 | 68 | 105 | 0.0 | 0.0 | 0.00 | 0.00 | 0.00 | 63 | 1009.4 |
| 20260505031830 | 68 | 105 | 0.0 | 0.0 | 0.00 | 0.00 | 0.00 | 58 | 1009.4 |
| 20260505031317 | 68 | 105 | 0.0 | 0.0 | 0.00 | 0.00 | 0.00 | 57 | 1009.4 |
| 20260505030826 | 69 | 105 | 0.0 | 0.0 | 0.00 | 0.00 | 0.00 | 57 | 1009.2 |
| 20260505030335 | 69 | 105 | 0.0 | 0.0 | 0.00 | 0.00 | 0.00 | 58 | 1009.2 |
| 20260505025842 | 70 | 105 | 0.0 | 0.0 | 0.00 | 0.00 | 0.00 | 57 | 1009.1 |
| 20260505025348 | 70 | 105 | 0.0 | 0.0 | 0.00 | 0.00 | 0.00 | 56 | 1009.0 |
| 20260505024814 | 70 | 105 | 0.0 | 0.0 | 0.00 | 0.00 | 0.00 | 55 | 1009.0 |
| 20260505024322 | 71 | 105 | 0.0 | 0.0 | 0.00 | 0.00 | 0.00 | 56 | 1008.9 |
| 20260505023830 | 71 | 105 | 0.0 | 0.0 | 0.00 | 0.00 | 0.00 | 55 | 1008.9 |
| 20260505023319 | 72 | 105 | 0.0 | 0.0 | 0.00 | 0.00 | 0.00 | 55 | 1008.9 |
| 20260505022833 | 72 | 105 | 0.0 | 0.9 | 0.00 | 0.00 | 0.00 | 53 | 1008.8 |
| 20260505022321 | 73 | 105 | 0.0 | 0.9 | 0.00 | 0.00 | 0.00 | 53 | 1008.8 |
| 20260505021828 | 73 | 293 | 0.0 | 0.9 | 0.00 | 0.00 | 0.00 | 49 | 1008.8 |
| 20260505021315 | 74 | 293 | 0.0 | 1.7 | 0.00 | 0.00 | 0.00 | 49 | 1008.7 |
| 20260505020825 | 74 | 238 | 0.0 | 1.7 | 0.00 | 0.00 | 0.00 | 45 | 1008.8 |
| 20260505020332 | 74 | 189 | 0.0 | 1.7 | 0.00 | 0.00 | 0.00 | 46 | 1008.8 |
| 20260505015819 | 74 | 264 | 0.0 | 0.9 | 0.00 | 0.00 | 0.00 | 45 | 1008.8 |
| 20260505015326 | 75 | 221 | 0.0 | 0.9 | 0.00 | 0.00 | 0.00 | 43 | 1008.8 |
| 20260505014814 | 75 | 217 | 0.0 | 0.9 | 0.00 | 0.00 | 0.00 | 44 | 1008.8 |
| 20260505014321 | 75 | 217 | 0.0 | 3.5 | 0.00 | 0.00 | 0.00 | 44 | 1008.8 |
| 20260505013829 | 75 | 321 | 1.7 | 3.5 | 0.00 | 0.00 | 0.00 | 40 | 1008.8 |
| 20260505013321 | 76 | 198 | 0.0 | 0.0 | 0.00 | 0.00 | 0.00 | 44 | 1008.8 |
| 20260505012830 | 76 | 198 | 0.0 | 4.3 | 0.00 | 0.00 | 0.00 | 44 | 1008.8 |
| 20260505012338 | 76 | 198 | 0.9 | 4.3 | 0.00 | 0.00 | 0.00 | 40 | 1008.9 |
| 20260505011827 | 77 | 155 | 0.9 | 4.3 | 0.00 | 0.00 | 0.00 | 40 | 1008.9 |
| 20260505011315 | 77 | 207 | 0.0 | 3.5 | 0.00 | 0.00 | 0.00 | 43 | 1008.9 |
| 20260505010824 | 77 | 229 | 0.9 | 1.7 | 0.00 | 0.00 | 0.00 | 40 | 1008.9 |
| 20260505010333 | 77 | 78 | 0.9 | 1.7 | 0.00 | 0.00 | 0.00 | 41 | 1008.8 |
| 20260505005822 | 78 | 304 | 0.0 | 5.2 | 0.00 | 0.00 | 0.00 | 37 | 1009.0 |
| 20260505005328 | 78 | 229 | 1.7 | 5.2 | 0.00 | 0.00 | 0.00 | 38 | 1009.0 |
| 20260505004816 | 78 | 206 | 0.9 | 4.3 | 0.00 | 0.00 | 0.00 | 38 | 1008.9 |
| 20260505004328 | 78 | 185 | 1.7 | 4.3 | 0.00 | 0.00 | 0.00 | 37 | 1008.9 |
| 20260505003816 | 78 | 303 | 0.0 | 5.2 | 0.00 | 0.00 | 0.00 | 39 | 1008.9 |
| 20260505003326 | 78 | 303 | 1.7 | 5.2 | 0.00 | 0.00 | 0.00 | 37 | 1008.9 |
| 20260505002814 | 79 | 324 | 0.0 | 3.5 | 0.00 | 0.00 | 0.00 | 37 | 1008.9 |
| 20260505002343 | 79 | 311 | 0.0 | 4.3 | 0.00 | 0.00 | 0.00 | 39 | 1008.9 |
| 20260505001830 | 79 | 213 | 0.9 | 4.3 | 0.00 | 0.00 | 0.00 | 38 | 1008.9 |
| 20260505001319 | 79 | 275 | 1.7 | 4.3 | 0.00 | 0.00 | 0.00 | 37 | 1008.9 |
| 20260505000822 | 79 | 214 | 0.9 | 4.3 | 0.00 | 0.00 | 0.00 | 38 | 1008.9 |
| 20260505000330 | 79 | 254 | 1.7 | 7.8 | 0.00 | 0.00 | 0.00 | 40 | 1008.9 |
| 20260504235820 | 79 | 248 | 4.3 | 7.8 | 0.00 | 0.00 | 0.00 | 39 | 1008.9 |
| 20260504235329 | 80 | 200 | 1.7 | 5.2 | 0.00 | 0.00 | 0.00 | 39 | 1009.0 |
| 20260504234820 | 80 | 169 | 1.7 | 5.2 | 0.00 | 0.00 | 0.00 | 39 | 1009.0 |
| 20260504234328 | 80 | 355 | 2.6 | 5.2 | 0.00 | 0.00 | 0.00 | 37 | 1009.1 |
| 20260504233815 | 81 | 198 | 0.9 | 4.3 | 0.00 | 0.00 | 0.00 | 37 | 1009.1 |
| 20260504233324 | 81 | 316 | 0.9 | 3.5 | 0.00 | 0.00 | 0.00 | 40 | 1009.1 |
| 20260504232833 | 82 | 219 | 0.9 | 6.1 | 0.00 | 0.00 | 0.00 | 38 | 1009.0 |
| 20260504232321 | 82 | 47 | 1.7 | 5.2 | 0.00 | 0.00 | 0.00 | 37 | 1009.1 |
| 20260504231827 | 82 | 303 | 0.9 | 3.5 | 0.00 | 0.00 | 0.00 | 37 | 1009.2 |
| 20260504231335 | 82 | 188 | 0.9 | 6.1 | 0.00 | 0.00 | 0.00 | 38 | 1009.1 |
| 20260504230842 | 82 | 329 | 0.9 | 6.1 | 0.00 | 0.00 | 0.00 | 40 | 1009.1 |
| 20260504230349 | 82 | 294 | 1.7 | 6.1 | 0.00 | 0.00 | 0.00 | 38 | 1009.2 |
| 20260504225838 | 82 | 43 | 0.9 | 6.1 | 0.00 | 0.00 | 0.00 | 38 | 1009.2 |
| 20260504225345 | 82 | 178 | 1.7 | 6.1 | 0.00 | 0.00 | 0.00 | 39 | 1009.2 |
| 20260504224831 | 81 | 231 | 1.7 | 4.3 | 0.00 | 0.00 | 0.00 | 37 | 1009.2 |
| 20260504224321 | 81 | 296 | 1.7 | 6.1 | 0.00 | 0.00 | 0.00 | 38 | 1009.2 |
| 20260504223825 | 81 | 54 | 1.7 | 6.1 | 0.00 | 0.00 | 0.00 | 37 | 1009.3 |
| 20260504223337 | 82 | 102 | 1.7 | 5.2 | 0.00 | 0.00 | 0.00 | 37 | 1009.4 |
| 20260504222826 | 82 | 288 | 0.9 | 3.5 | 0.00 | 0.00 | 0.00 | 41 | 1009.5 |
| 20260504222314 | 82 | 223 | 0.9 | 4.3 | 0.00 | 0.00 | 0.00 | 37 | 1009.5 |
| 20260504221824 | 82 | 214 | 1.7 | 7.8 | 0.00 | 0.00 | 0.00 | 40 | 1009.6 |
| 20260504221332 | 82 | 218 | 2.6 | 7.8 | 0.00 | 0.00 | 0.00 | 36 | 1009.7 |
| 20260504220820 | 82 | 21 | 0.0 | 3.5 | 0.00 | 0.00 | 0.00 | 37 | 1009.7 |
| 20260504220328 | 81 | 231 | 0.9 | 7.8 | 0.00 | 0.00 | 0.00 | 38 | 1009.8 |
| 20260504215816 | 81 | 227 | 1.7 | 7.8 | 0.00 | 0.00 | 0.00 | 37 | 1009.8 |
| 20260504215325 | 81 | 160 | 1.7 | 4.3 | 0.00 | 0.00 | 0.00 | 36 | 1009.9 |
| 20260504214817 | 81 | 346 | 2.6 | 4.3 | 0.00 | 0.00 | 0.00 | 35 | 1010.0 |
| 20260504214326 | 81 | 316 | 0.0 | 4.3 | 0.00 | 0.00 | 0.00 | 37 | 1009.9 |
| 20260504213814 | 80 | 266 | 1.7 | 4.3 | 0.00 | 0.00 | 0.00 | 37 | 1010.0 |
| 20260504213320 | 80 | 174 | 1.7 | 4.3 | 0.00 | 0.00 | 0.00 | 37 | 1010.0 |
| 20260504212829 | 81 | 225 | 1.7 | 7.0 | 0.00 | 0.00 | 0.00 | 33 | 1010.0 |
| 20260504212317 | 81 | 141 | 1.7 | 7.0 | 0.00 | 0.00 | 0.00 | 34 | 1010.1 |
| 20260504211825 | 81 | 249 | 2.6 | 6.1 | 0.00 | 0.00 | 0.00 | 32 | 1010.0 |
| 20260504211332 | 81 | 323 | 0.9 | 7.0 | 0.00 | 0.00 | 0.00 | 38 | 1010.1 |
| 20260504210843 | 81 | 217 | 1.7 | 7.8 | 0.00 | 0.00 | 0.00 | 33 | 1010.1 |
| 20260504210329 | 81 | 218 | 1.7 | 5.2 | 0.00 | 0.00 | 0.00 | 36 | 1010.1 |
| 20260504205822 | 81 | 232 | 0.9 | 4.3 | 0.00 | 0.00 | 0.00 | 37 | 1010.1 |
| 20260504205350 | 81 | 207 | 1.7 | 4.3 | 0.00 | 0.00 | 0.00 | 41 | 1010.1 |
| 20260504204817 | 80 | 240 | 0.9 | 7.8 | 0.00 | 0.00 | 0.00 | 35 | 1010.2 |
| 20260504204327 | 80 | 211 | 1.7 | 7.8 | 0.00 | 0.00 | 0.00 | 35 | 1010.2 |
| 20260504203815 | 80 | 310 | 0.9 | 3.5 | 0.00 | 0.00 | 0.00 | 37 | 1010.2 |
| 20260504203325 | 80 | 264 | 0.9 | 5.2 | 0.00 | 0.00 | 0.00 | 40 | 1010.2 |
| 20260504202814 | 80 | 217 | 0.9 | 5.2 | 0.00 | 0.00 | 0.00 | 36 | 1010.1 |
| 20260504202343 | 80 | 248 | 0.9 | 4.3 | 0.00 | 0.00 | 0.00 | 39 | 1010.2 |
| 20260504201829 | 80 | 217 | 0.9 | 4.3 | 0.00 | 0.00 | 0.00 | 38 | 1010.2 |
| 20260504201317 | 80 | 202 | 0.9 | 5.2 | 0.00 | 0.00 | 0.00 | 39 | 1010.2 |
| 20260504200824 | 80 | 134 | 0.9 | 5.2 | 0.00 | 0.00 | 0.00 | 37 | 1010.2 |
| 20260504200315 | 80 | 298 | 0.9 | 2.6 | 0.00 | 0.00 | 0.00 | 39 | 1010.2 |
| 20260504195846 | 79 | 335 | 0.9 | 4.3 | 0.00 | 0.00 | 0.00 | 43 | 1010.3 |
| 20260504195333 | 79 | 192 | 0.9 | 6.1 | 0.00 | 0.00 | 0.00 | 39 | 1010.3 |
| 20260504194820 | 79 | 249 | 1.7 | 6.1 | 0.00 | 0.00 | 0.00 | 38 | 1010.3 |
| 20260504194327 | 79 | 238 | 0.9 | 3.5 | 0.00 | 0.00 | 0.00 | 43 | 1010.2 |
| 20260504193835 | 78 | 223 | 0.0 | 3.5 | 0.00 | 0.00 | 0.00 | 43 | 1010.2 |
| 20260504193321 | 78 | 325 | 0.9 | 3.5 | 0.00 | 0.00 | 0.00 | 37 | 1010.2 |
| 20260504192829 | 77 | 187 | 0.9 | 4.3 | 0.00 | 0.00 | 0.00 | 39 | 1010.2 |
| 20260504192316 | 77 | 219 | 2.6 | 4.3 | 0.00 | 0.00 | 0.00 | 41 | 1010.3 |
| 20260504191826 | 77 | 9 | 0.9 | 2.6 | 0.00 | 0.00 | 0.00 | 42 | 1010.3 |
| 20260504191354 | 77 | 305 | 1.7 | 4.3 | 0.00 | 0.00 | 0.00 | 45 | 1010.4 |
| 20260504190825 | 77 | 198 | 0.0 | 5.2 | 0.00 | 0.00 | 0.00 | 45 | 1010.4 |
| 20260504190333 | 77 | 338 | 1.7 | 5.2 | 0.00 | 0.00 | 0.00 | 44 | 1010.4 |
| 20260504185822 | 77 | 150 | 2.6 | 5.2 | 0.00 | 0.00 | 0.00 | 41 | 1010.4 |
| 20260504185330 | 76 | 307 | 1.7 | 5.2 | 0.00 | 0.00 | 0.00 | 45 | 1010.5 |
| 20260504184817 | 76 | 319 | 0.9 | 5.2 | 0.00 | 0.00 | 0.00 | 43 | 1010.5 |
| 20260504184327 | 77 | 345 | 1.7 | 6.1 | 0.00 | 0.00 | 0.00 | 42 | 1010.6 |
| 20260504183813 | 77 | 264 | 0.0 | 3.5 | 0.00 | 0.00 | 0.00 | 43 | 1010.7 |
| 20260504183321 | 76 | 303 | 0.9 | 7.0 | 0.00 | 0.00 | 0.00 | 45 | 1010.5 |
| 20260504182830 | 76 | 258 | 3.5 | 7.0 | 0.00 | 0.00 | 0.00 | 40 | 1010.6 |
| 20260504182318 | 76 | 207 | 0.0 | 3.5 | 0.00 | 0.00 | 0.00 | 45 | 1010.6 |
| 20260504181846 | 75 | 247 | 0.0 | 6.1 | 0.00 | 0.00 | 0.00 | 52 | 1010.6 |
| 20260504181316 | 75 | 196 | 2.6 | 6.1 | 0.00 | 0.00 | 0.00 | 45 | 1010.6 |